CPA458 VHHH-RCKH

Flight info

Callsign CPA458
Flight time 0h 59m
Altitude 35000
Route DALOL V631 ENVAR M750 DADON G581 PORCH
Aircraft B77W/H-SDE1E2E3FGHIJ2J3J4J5M1RWXY/LB1D1

Departure

Time 2026-05-05 08:41
Airport Hong Kong International Airport (VHHH)

Arrival

Time 2026-05-05 09:40
Airport Kaohsiung International Airport (RCKH)
Time Latitude Longitude Altitude Speed Heading
2026-05-05 07:54 22.31416 113.92341 42 ft 0 kts 26°
2026-05-05 08:24 22.31413 113.92340 41 ft 3 kts 26°
2026-05-05 08:25 22.31390 113.92328 42 ft 4 kts 26°
2026-05-05 08:25 22.31369 113.92317 42 ft 2 kts 26°
2026-05-05 08:25 22.31352 113.92305 42 ft 4 kts 59°
2026-05-05 08:25 22.31347 113.92288 42 ft 4 kts 102°
2026-05-05 08:26 22.31355 113.92265 40 ft 4 kts 116°
2026-05-05 08:26 22.31362 113.92249 42 ft 0 kts 116°
2026-05-05 08:30 22.31362 113.92250 42 ft 0 kts 116°
2026-05-05 08:31 22.31354 113.92267 42 ft 5 kts 116°
2026-05-05 08:31 22.31330 113.92321 42 ft 10 kts 116°
2026-05-05 08:31 22.31305 113.92377 42 ft 10 kts 116°
2026-05-05 08:31 22.31269 113.92456 42 ft 12 kts 116°
2026-05-05 08:32 22.31210 113.92506 42 ft 13 kts 179°
2026-05-05 08:32 22.31115 113.92470 42 ft 17 kts 204°
2026-05-05 08:32 22.31010 113.92416 42 ft 17 kts 206°
2026-05-05 08:32 22.30919 113.92367 42 ft 12 kts 206°
2026-05-05 08:33 22.30838 113.92328 42 ft 13 kts 194°
2026-05-05 08:33 22.30750 113.92337 42 ft 13 kts 189°
2026-05-05 08:33 22.30695 113.92254 42 ft 16 kts 249°
2026-05-05 08:33 22.30654 113.92132 42 ft 19 kts 250°
2026-05-05 08:34 22.30608 113.91989 42 ft 21 kts 251°
2026-05-05 08:34 22.30562 113.91847 42 ft 21 kts 251°
2026-05-05 08:34 22.30512 113.91691 42 ft 23 kts 251°
2026-05-05 08:34 22.30457 113.91523 42 ft 23 kts 250°
2026-05-05 08:35 22.30408 113.91370 42 ft 22 kts 251°
2026-05-05 08:35 22.30359 113.91216 42 ft 22 kts 251°
2026-05-05 08:35 22.30309 113.91062 42 ft 22 kts 251°
2026-05-05 08:35 22.30256 113.90899 42 ft 24 kts 250°
2026-05-05 08:36 22.30201 113.90731 42 ft 24 kts 250°
2026-05-05 08:36 22.30154 113.90587 41 ft 20 kts 250°
2026-05-05 08:36 22.30107 113.90441 41 ft 22 kts 251°
2026-05-05 08:36 22.30063 113.90303 41 ft 19 kts 251°
2026-05-05 08:37 22.30017 113.90160 40 ft 21 kts 251°
2026-05-05 08:37 22.29976 113.90031 41 ft 18 kts 251°
2026-05-05 08:37 22.29936 113.89907 41 ft 7 kts 251°
2026-05-05 08:37 22.29916 113.89845 42 ft 10 kts 251°
2026-05-05 08:38 22.29895 113.89781 42 ft 8 kts 250°
2026-05-05 08:38 22.29852 113.89741 42 ft 10 kts 192°
2026-05-05 08:38 22.29784 113.89752 42 ft 9 kts 162°
2026-05-05 08:38 22.29715 113.89776 42 ft 12 kts 162°
2026-05-05 08:39 22.29650 113.89834 42 ft 13 kts 107°
2026-05-05 08:39 22.29659 113.89910 42 ft 0 kts 73°
2026-05-05 08:39 22.29659 113.89912 42 ft 0 kts 72°
2026-05-05 08:40 22.29660 113.89913 42 ft 4 kts 72°
2026-05-05 08:40 22.29715 113.90089 41 ft 55 kts 71°
2026-05-05 08:40 22.29964 113.90859 43 ft 159 kts 70°
2026-05-05 08:41 22.30405 113.92222 377 ft 210 kts 70°
2026-05-05 08:41 22.30894 113.93758 1380 ft 213 kts 70°
2026-05-05 08:41 22.31373 113.95252 2570 ft 217 kts 69°
2026-05-05 08:41 22.31899 113.96873 3174 ft 237 kts 69°
2026-05-05 08:42 22.32452 113.98579 4100 ft 244 kts 70°
2026-05-05 08:42 22.33029 114.00369 4776 ft 261 kts 71°
2026-05-05 08:42 22.33629 114.02255 5014 ft 268 kts 73°
2026-05-05 08:42 22.33834 114.04254 5007 ft 272 kts 98°
2026-05-05 08:43 22.33229 114.06149 4996 ft 272 kts 123°
2026-05-05 08:43 22.31974 114.07650 4996 ft 269 kts 143°
2026-05-05 08:43 22.30314 114.08537 5003 ft 266 kts 165°
2026-05-05 08:43 22.28469 114.08771 5004 ft 267 kts 180°
2026-05-05 08:44 22.26613 114.08725 5003 ft 268 kts 180°
2026-05-05 08:44 22.24746 114.08697 5005 ft 269 kts 180°
2026-05-05 08:44 22.22870 114.08675 5000 ft 270 kts 180°
2026-05-05 08:44 22.20991 114.08655 5009 ft 270 kts 180°
2026-05-05 08:45 22.19108 114.08640 5009 ft 270 kts 180°
2026-05-05 08:45 22.17268 114.08826 4988 ft 265 kts 160°
2026-05-05 08:45 22.15720 114.09871 5010 ft 264 kts 135°
2026-05-05 08:45 22.14663 114.11482 5034 ft 266 kts 118°
2026-05-05 08:46 22.13840 114.13239 5355 ft 265 kts 118°
2026-05-05 08:46 22.13007 114.15029 5823 ft 270 kts 118°
2026-05-05 08:46 22.12151 114.16860 6283 ft 275 kts 119°
2026-05-05 08:46 22.11278 114.18715 6736 ft 279 kts 119°
2026-05-05 08:47 22.10390 114.20588 7189 ft 282 kts 120°
2026-05-05 08:47 22.09492 114.22481 7644 ft 285 kts 120°
2026-05-05 08:47 22.08586 114.24385 8108 ft 286 kts 120°
2026-05-05 08:47 22.07584 114.26242 8848 ft 289 kts 133°
2026-05-05 08:48 22.06041 114.27630 9566 ft 291 kts 148°
2026-05-05 08:48 22.04363 114.28903 10431 ft 301 kts 148°
2026-05-05 08:48 22.02616 114.30244 10852 ft 326 kts 148°
2026-05-05 08:48 22.00684 114.31744 11074 ft 358 kts 148°
2026-05-05 08:49 21.98594 114.33386 11449 ft 382 kts 147°
2026-05-05 08:49 21.96419 114.35102 12234 ft 393 kts 147°
2026-05-05 08:49 21.94185 114.36868 13147 ft 401 kts 147°
2026-05-05 08:49 21.91912 114.38660 14110 ft 407 kts 147°
2026-05-05 08:50 21.89616 114.40467 15074 ft 411 kts 147°
2026-05-05 08:50 21.87292 114.42298 15982 ft 415 kts 147°
2026-05-05 08:50 21.85192 114.44487 16621 ft 430 kts 129°
2026-05-05 08:50 21.83850 114.47358 17366 ft 440 kts 109°
2026-05-05 08:51 21.83044 114.50555 18053 ft 447 kts 106°
2026-05-05 08:51 21.82256 114.53821 18782 ft 454 kts 106°
2026-05-05 08:51 21.81453 114.57125 19565 ft 459 kts 107°
2026-05-05 08:51 21.80623 114.60457 20304 ft 464 kts 107°
2026-05-05 08:52 21.79767 114.63832 20941 ft 471 kts 107°
2026-05-05 08:52 21.78886 114.67260 21557 ft 478 kts 107°
2026-05-05 08:52 21.77991 114.70719 22189 ft 483 kts 107°
2026-05-05 08:52 21.77085 114.74223 22824 ft 488 kts 107°
2026-05-05 08:53 21.76172 114.77752 23413 ft 493 kts 107°
2026-05-05 08:53 21.75246 114.81329 23948 ft 498 kts 107°
2026-05-05 08:53 21.74375 114.84960 24467 ft 505 kts 102°
2026-05-05 08:53 21.74074 114.88689 25011 ft 509 kts 91°
2026-05-05 08:54 21.74118 114.92511 25588 ft 512 kts 89°
2026-05-05 08:54 21.74229 114.96354 26088 ft 517 kts 89°
2026-05-05 08:54 21.74321 115.00240 26548 ft 522 kts 89°
2026-05-05 08:54 21.74364 115.04174 27003 ft 526 kts 90°
2026-05-05 08:55 21.74366 115.08129 27490 ft 530 kts 91°
2026-05-05 08:55 21.74345 115.12103 27974 ft 533 kts 91°
2026-05-05 08:55 21.74321 115.16096 28439 ft 536 kts 91°
2026-05-05 08:55 21.74302 115.20115 28864 ft 540 kts 91°
2026-05-05 08:56 21.74289 115.24169 29252 ft 543 kts 91°
2026-05-05 08:56 21.74282 115.28249 29616 ft 547 kts 91°
2026-05-05 08:56 21.74275 115.32296 29982 ft 550 kts 91°
2026-05-05 08:56 21.74266 115.36418 30390 ft 552 kts 91°
2026-05-05 08:57 21.74256 115.40535 30908 ft 550 kts 91°
2026-05-05 08:57 21.74246 115.44644 31445 ft 549 kts 91°
2026-05-05 08:57 21.74233 115.48744 31952 ft 548 kts 91°
2026-05-05 08:57 21.74219 115.52836 32456 ft 546 kts 91°
2026-05-05 08:58 21.74205 115.56923 32923 ft 546 kts 91°
2026-05-05 08:58 21.74190 115.61005 33387 ft 545 kts 91°
2026-05-05 08:58 21.74176 115.65083 33850 ft 545 kts 91°
2026-05-05 08:58 21.74162 115.69165 34273 ft 545 kts 91°
2026-05-05 08:59 21.74147 115.73247 34731 ft 544 kts 91°
2026-05-05 08:59 21.74131 115.77305 35197 ft 542 kts 91°
2026-05-05 08:59 21.74114 115.81358 35671 ft 540 kts 91°
2026-05-05 08:59 21.74096 115.85400 36086 ft 540 kts 91°
2026-05-05 09:00 21.74075 115.89439 36459 ft 540 kts 90°
2026-05-05 09:00 21.74054 115.93474 36808 ft 539 kts 90°
2026-05-05 09:00 21.74033 115.97506 37021 ft 540 kts 90°
2026-05-05 09:01 21.73989 116.05470 36982 ft 530 kts 91°
2026-05-05 09:01 21.73941 116.13366 36991 ft 528 kts 91°
2026-05-05 09:02 21.73887 116.21284 37001 ft 530 kts 91°
2026-05-05 09:02 21.73841 116.27881 36996 ft 532 kts 91°
2026-05-05 09:03 21.73783 116.35854 36998 ft 533 kts 91°
2026-05-05 09:03 21.73719 116.43834 36992 ft 533 kts 91°
2026-05-05 09:04 21.73652 116.51816 36992 ft 533 kts 91°
2026-05-05 09:04 21.73581 116.59786 36989 ft 532 kts 91°
2026-05-05 09:05 21.73495 116.69018 36988 ft 530 kts 91°
2026-05-05 09:05 21.73674 116.75653 36995 ft 528 kts 83°
2026-05-05 09:06 21.75129 116.83337 37000 ft 525 kts 72°
2026-05-05 09:06 21.77686 116.90675 37004 ft 523 kts 66°
2026-05-05 09:07 21.80419 116.97950 36999 ft 524 kts 66°
2026-05-05 09:07 21.83102 117.05242 37003 ft 524 kts 67°
2026-05-05 09:08 21.85735 117.12526 37000 ft 525 kts 67°
2026-05-05 09:08 21.88380 117.19876 37001 ft 526 kts 67°
2026-05-05 09:09 21.91023 117.27224 37000 ft 526 kts 67°
2026-05-05 09:09 21.93671 117.34578 37001 ft 526 kts 67°
2026-05-05 09:10 21.96296 117.41891 36999 ft 526 kts 67°
2026-05-05 09:10 21.98998 117.49227 36999 ft 525 kts 64°
2026-05-05 09:11 22.02511 117.56091 37003 ft 522 kts 56°
2026-05-05 09:11 22.06374 117.62747 37005 ft 524 kts 55°
2026-05-05 09:12 22.10216 117.69440 37001 ft 525 kts 56°
2026-05-05 09:12 22.14020 117.76169 36998 ft 525 kts 56°
2026-05-05 09:13 22.17795 117.82875 37002 ft 525 kts 56°
2026-05-05 09:13 22.21593 117.89620 36999 ft 526 kts 56°
2026-05-05 09:14 22.25276 117.96424 36992 ft 526 kts 64°
2026-05-05 09:14 22.26470 118.00170 36997 ft 529 kts 76°
2026-05-05 09:14 22.27050 118.04090 37006 ft 529 kts 86°
2026-05-05 09:14 22.26990 118.08057 36999 ft 528 kts 98°
2026-05-05 09:15 22.26462 118.11976 37007 ft 527 kts 100°
2026-05-05 09:15 22.25442 118.19823 36999 ft 528 kts 98°
2026-05-05 09:16 22.24544 118.27662 36993 ft 529 kts 98°
2026-05-05 09:16 22.23649 118.35555 36987 ft 529 kts 98°
2026-05-05 09:17 22.22737 118.43443 36992 ft 529 kts 98°
2026-05-05 09:17 22.21830 118.51235 36556 ft 516 kts 98°
2026-05-05 09:17 22.21387 118.55026 35823 ft 517 kts 99°
2026-05-05 09:18 22.20930 118.58896 34737 ft 526 kts 99°
2026-05-05 09:18 22.20459 118.62855 33514 ft 536 kts 99°
2026-05-05 09:18 22.19980 118.66880 32350 ft 545 kts 99°
2026-05-05 09:18 22.19495 118.70957 31298 ft 548 kts 99°
2026-05-05 09:19 22.19012 118.75034 30605 ft 544 kts 99°
2026-05-05 09:19 22.18536 118.79049 30083 ft 536 kts 99°
2026-05-05 09:19 22.18064 118.83015 29535 ft 529 kts 99°
2026-05-05 09:19 22.17595 118.86933 28923 ft 523 kts 99°
2026-05-05 09:20 22.17132 118.90802 28294 ft 518 kts 99°
2026-05-05 09:20 22.16675 118.94594 27695 ft 513 kts 99°
2026-05-05 09:20 22.16215 118.98395 27090 ft 509 kts 100°
2026-05-05 09:20 22.15668 119.02144 26496 ft 503 kts 102°
2026-05-05 09:21 22.15053 119.05847 25904 ft 498 kts 102°
2026-05-05 09:21 22.14468 119.09512 25300 ft 494 kts 100°
2026-05-05 09:21 22.14008 119.13175 24697 ft 491 kts 98°
2026-05-05 09:21 22.13618 119.16801 24091 ft 476 kts 97°
2026-05-05 09:22 22.13260 119.20289 22893 ft 462 kts 98°
2026-05-05 09:22 22.12895 119.23725 22217 ft 458 kts 98°
2026-05-05 09:22 22.12521 119.27123 21669 ft 455 kts 99°
2026-05-05 09:22 22.12136 119.30499 21125 ft 452 kts 99°
2026-05-05 09:23 22.11752 119.33813 20589 ft 449 kts 99°
2026-05-05 09:23 22.11358 119.37184 20045 ft 445 kts 99°
2026-05-05 09:23 22.10976 119.40444 19507 ft 442 kts 99°
2026-05-05 09:23 22.10587 119.43752 18963 ft 439 kts 99°
2026-05-05 09:24 22.10209 119.46962 18434 ft 435 kts 100°
2026-05-05 09:24 22.09829 119.50188 17900 ft 431 kts 100°
2026-05-05 09:24 22.09453 119.53383 17370 ft 427 kts 100°
2026-05-05 09:24 22.09079 119.56550 16841 ft 424 kts 100°
2026-05-05 09:25 22.08707 119.59694 16314 ft 420 kts 100°
2026-05-05 09:25 22.08338 119.62812 15789 ft 417 kts 100°
2026-05-05 09:25 22.07971 119.65904 15271 ft 413 kts 100°
2026-05-05 09:25 22.07600 119.68963 14752 ft 410 kts 100°
2026-05-05 09:26 22.07218 119.71997 14235 ft 406 kts 100°
2026-05-05 09:26 22.06840 119.74962 13713 ft 403 kts 100°
2026-05-05 09:26 22.06460 119.77944 13194 ft 400 kts 100°
2026-05-05 09:26 22.06084 119.80907 12686 ft 396 kts 100°
2026-05-05 09:27 22.05713 119.83837 12188 ft 392 kts 99°
2026-05-05 09:27 22.05346 119.86736 11695 ft 389 kts 99°
2026-05-05 09:27 22.04981 119.89610 11207 ft 385 kts 99°
2026-05-05 09:27 22.04859 119.92434 10784 ft 374 kts 83°
2026-05-05 09:28 22.05637 119.95043 10693 ft 361 kts 62°
2026-05-05 09:28 22.07117 119.97153 10544 ft 349 kts 43°
2026-05-05 09:28 22.09012 119.98706 10412 ft 337 kts 30°
2026-05-05 09:28 22.11120 119.99670 10253 ft 321 kts 12°
2026-05-05 09:29 22.13262 120.00119 10139 ft 309 kts
2026-05-05 09:29 22.15349 120.00514 10011 ft 299 kts
2026-05-05 09:29 22.17385 120.00899 9715 ft 296 kts
2026-05-05 09:29 22.19407 120.01288 9406 ft 294 kts 10°
2026-05-05 09:30 22.21419 120.01683 9081 ft 293 kts 10°
2026-05-05 09:30 22.23418 120.02082 8768 ft 291 kts 11°
2026-05-05 09:30 22.25404 120.02482 8444 ft 290 kts 11°
2026-05-05 09:30 22.27357 120.02878 8128 ft 289 kts 11°
2026-05-05 09:31 22.29322 120.03277 7806 ft 287 kts 11°
2026-05-05 09:31 22.31281 120.03676 7483 ft 286 kts 11°
2026-05-05 09:31 22.33231 120.04073 7170 ft 284 kts 11°
2026-05-05 09:31 22.35174 120.04469 6863 ft 283 kts 11°
2026-05-05 09:32 22.37108 120.04863 6539 ft 282 kts 11°
2026-05-05 09:32 22.39030 120.05256 6230 ft 280 kts 11°
2026-05-05 09:32 22.40942 120.05649 5911 ft 279 kts 11°
2026-05-05 09:32 22.42843 120.06038 5600 ft 277 kts 11°
2026-05-05 09:33 22.44734 120.06426 5292 ft 276 kts 11°
2026-05-05 09:33 22.46556 120.06800 4967 ft 262 kts 11°
2026-05-05 09:33 22.48339 120.07166 4698 ft 260 kts 12°
2026-05-05 09:33 22.50113 120.07531 4409 ft 259 kts 12°
2026-05-05 09:34 22.51880 120.07894 4130 ft 257 kts 11°
2026-05-05 09:34 22.53631 120.08254 3829 ft 256 kts 12°
2026-05-05 09:34 22.55366 120.08626 3542 ft 251 kts 16°
2026-05-05 09:34 22.56841 120.09509 3402 ft 239 kts 44°
2026-05-05 09:35 22.57813 120.10909 3273 ft 226 kts 62°
2026-05-05 09:35 22.58281 120.14065 3083 ft 203 kts 86°
2026-05-05 09:35 22.58294 120.15553 2984 ft 194 kts 89°
2026-05-05 09:36 22.58260 120.16997 2815 ft 189 kts 90°
2026-05-05 09:36 22.58219 120.18384 2680 ft 181 kts 91°
2026-05-05 09:36 22.58177 120.19733 2429 ft 178 kts 92°
2026-05-05 09:36 22.58137 120.21040 2177 ft 168 kts 93°
2026-05-05 09:37 22.58101 120.22235 1954 ft 152 kts 94°
2026-05-05 09:37 22.58066 120.23346 1622 ft 148 kts 95°
2026-05-05 09:37 22.58030 120.24472 1643 ft 151 kts 94°
2026-05-05 09:37 22.57995 120.25608 1479 ft 152 kts 94°
2026-05-05 09:38 22.57960 120.26742 1288 ft 149 kts 89°
2026-05-05 09:38 22.57927 120.27849 1093 ft 146 kts 89°
2026-05-05 09:38 22.57894 120.28941 911 ft 145 kts 89°
2026-05-05 09:38 22.57860 120.30040 725 ft 146 kts 89°
2026-05-05 09:39 22.57826 120.31132 525 ft 145 kts 90°
2026-05-05 09:39 22.57792 120.32226 336 ft 147 kts 88°
2026-05-05 09:39 22.57760 120.33318 147 ft 145 kts 90°
2026-05-05 09:39 22.57720 120.34384 41 ft 133 kts 91°
2026-05-05 09:40 22.57701 120.35244 43 ft 94 kts 91°
2026-05-05 09:40 22.57684 120.35788 44 ft 50 kts 91°
2026-05-05 09:40 22.57677 120.36062 43 ft 28 kts 91°
2026-05-05 09:40 22.57670 120.36235 45 ft 22 kts 92°
2026-05-05 09:41 22.57665 120.36353 45 ft 14 kts 96°
2026-05-05 09:41 22.57594 120.36412 44 ft 15 kts 174°
2026-05-05 09:41 22.57506 120.36367 43 ft 16 kts 249°
2026-05-05 09:41 22.57501 120.36246 43 ft 17 kts 271°
2026-05-05 09:42 22.57504 120.36117 43 ft 18 kts 271°
2026-05-05 09:42 22.57509 120.35981 43 ft 18 kts 273°
2026-05-05 09:42 22.57514 120.35843 43 ft 18 kts 272°
2026-05-05 09:42 22.57519 120.35707 43 ft 18 kts 272°
2026-05-05 09:43 22.57523 120.35570 43 ft 18 kts 271°
2026-05-05 09:43 22.57526 120.35433 43 ft 18 kts 271°
2026-05-05 09:43 22.57529 120.35296 42 ft 18 kts 271°
2026-05-05 09:43 22.57534 120.35159 43 ft 18 kts 272°
2026-05-05 09:44 22.57539 120.35022 43 ft 18 kts 272°
2026-05-05 09:44 22.57544 120.34886 43 ft 18 kts 272°
2026-05-05 09:44 22.57548 120.34759 43 ft 14 kts 272°
2026-05-05 09:44 22.57551 120.34652 43 ft 15 kts 272°
2026-05-05 09:45 22.57555 120.34536 43 ft 16 kts 272°
2026-05-05 09:45 22.57559 120.34410 43 ft 17 kts 272°
2026-05-05 09:45 22.57562 120.34289 43 ft 12 kts 272°
2026-05-05 09:45 22.57565 120.34197 43 ft 10 kts 272°
2026-05-05 09:46 22.57531 120.34132 43 ft 11 kts 205°
2026-05-05 09:46 22.57458 120.34122 43 ft 9 kts 179°
2026-05-05 09:46 22.57412 120.34162 43 ft 9 kts 111°
2026-05-05 09:46 22.57404 120.34238 43 ft 11 kts 91°
2026-05-05 09:47 22.57399 120.34297 43 ft 7 kts 110°
2026-05-05 09:47 22.57357 120.34322 43 ft 8 kts 168°
2026-05-05 09:47 22.57298 120.34325 43 ft 9 kts 179°
2026-05-05 09:47 22.57261 120.34301 43 ft 7 kts 252°
2026-05-05 09:48 22.57266 120.34261 43 ft 3 kts 273°
2026-05-05 09:48 22.57266 120.34248 43 ft 2 kts 271°
2026-05-05 09:48 22.57266 120.34233 43 ft 1 kts 271°
2026-05-05 09:48 22.57266 120.34231 43 ft 0 kts 271°